RYR61LJ LEPA-LEZL

Flight info

Callsign RYR61LJ
Flight time 1h 30m
Altitude 35000
Route EPAMA N733 VLC M985 MAMIS
Aircraft A320/M-SDE3FGHIRWY/LB1

Departure

Time 2026-05-06 21:53
Airport Palma de Mallorca Airport (LEPA)

Arrival

Time 2026-05-06 23:23
Airport Seville Airport (LEZL)
Time Latitude Longitude Altitude Speed Heading
2026-05-06 21:25 39.54514 2.73282 35 ft 0 kts 347°
2026-05-06 21:41 39.54510 2.73283 37 ft 2 kts 343°
2026-05-06 21:41 39.54497 2.73293 34 ft 2 kts 296°
2026-05-06 21:42 39.54493 2.73314 34 ft 2 kts 256°
2026-05-06 21:42 39.54498 2.73331 36 ft 1 kts 241°
2026-05-06 21:42 39.54499 2.73335 34 ft 0 kts 239°
2026-05-06 21:44 39.54497 2.73329 36 ft 2 kts 239°
2026-05-06 21:45 39.54487 2.73309 34 ft 3 kts 239°
2026-05-06 21:45 39.54472 2.73277 34 ft 5 kts 239°
2026-05-06 21:45 39.54451 2.73232 36 ft 7 kts 237°
2026-05-06 21:45 39.54409 2.73210 38 ft 7 kts 171°
2026-05-06 21:46 39.54391 2.73218 37 ft 0 kts 166°
2026-05-06 21:46 39.54388 2.73219 38 ft 1 kts 166°
2026-05-06 21:47 39.54373 2.73221 38 ft 1 kts 186°
2026-05-06 21:47 39.54356 2.73203 37 ft 5 kts 229°
2026-05-06 21:47 39.54320 2.73172 39 ft 7 kts 189°
2026-05-06 21:47 39.54286 2.73214 38 ft 8 kts 113°
2026-05-06 21:48 39.54280 2.73281 38 ft 0 kts 94°
2026-05-06 21:50 39.54280 2.73288 38 ft 3 kts 95°
2026-05-06 21:51 39.54277 2.73332 38 ft 7 kts 95°
2026-05-06 21:51 39.54271 2.73421 37 ft 12 kts 95°
2026-05-06 21:51 39.54292 2.73532 35 ft 8 kts 58°
2026-05-06 21:51 39.54321 2.73594 34 ft 12 kts 58°
2026-05-06 21:52 39.54468 2.73903 33 ft 74 kts 58°
2026-05-06 21:52 39.54848 2.74696 30 ft 130 kts 58°
2026-05-06 21:52 39.55411 2.75846 107 ft 166 kts 57°
2026-05-06 21:52 39.56062 2.77151 576 ft 178 kts 56°
2026-05-06 21:53 39.56790 2.78459 1218 ft 182 kts 52°
2026-05-06 21:53 39.57557 2.79795 1734 ft 192 kts 59°
2026-05-06 21:53 39.58242 2.81385 2107 ft 210 kts 64°
2026-05-06 21:53 39.58926 2.83088 2801 ft 215 kts 64°
2026-05-06 21:54 39.59622 2.84793 3543 ft 219 kts 63°
2026-05-06 21:54 39.60106 2.85948 4046 ft 221 kts 62°
2026-05-06 21:54 39.60856 2.87693 4819 ft 224 kts 61°
2026-05-06 21:54 39.61660 2.89437 5578 ft 227 kts 52°
2026-05-06 21:55 39.62920 2.90659 6309 ft 231 kts 19°
2026-05-06 21:55 39.64515 2.90800 7009 ft 234 kts 345°
2026-05-06 21:55 39.65930 2.89786 7722 ft 237 kts 312°
2026-05-06 21:55 39.66754 2.87956 8446 ft 238 kts 290°
2026-05-06 21:56 39.67309 2.85933 9235 ft 239 kts 287°
2026-05-06 21:56 39.67769 2.83843 9992 ft 242 kts 283°
2026-05-06 21:56 39.68124 2.81707 10704 ft 243 kts 279°
2026-05-06 21:56 39.68375 2.79536 11456 ft 243 kts 275°
2026-05-06 21:57 39.68515 2.77347 12231 ft 244 kts 272°
2026-05-06 21:57 39.68716 2.75158 12988 ft 245 kts 279°
2026-05-06 21:57 39.69166 2.72933 13344 ft 267 kts 287°
2026-05-06 21:57 39.69913 2.70612 13536 ft 291 kts 292°
2026-05-06 21:58 39.70766 2.68118 13696 ft 314 kts 292°
2026-05-06 21:58 39.71680 2.65441 13841 ft 335 kts 292°
2026-05-06 21:58 39.72640 2.62625 14259 ft 345 kts 292°
2026-05-06 21:58 39.73614 2.59764 14868 ft 348 kts 292°
2026-05-06 21:59 39.74593 2.56878 15492 ft 350 kts 291°
2026-05-06 21:59 39.75575 2.53971 16104 ft 353 kts 291°
2026-05-06 21:59 39.76566 2.51041 16722 ft 355 kts 291°
2026-05-06 21:59 39.77564 2.48092 17338 ft 358 kts 291°
2026-05-06 22:00 39.78567 2.45124 18015 ft 359 kts 291°
2026-05-06 22:00 39.79570 2.42147 18638 ft 361 kts 291°
2026-05-06 22:00 39.80578 2.39147 19214 ft 363 kts 291°
2026-05-06 22:00 39.81521 2.36096 19786 ft 364 kts 284°
2026-05-06 22:01 39.82011 2.32876 20355 ft 364 kts 273°
2026-05-06 22:01 39.81978 2.29589 20913 ft 364 kts 262°
2026-05-06 22:01 39.81426 2.26369 21460 ft 367 kts 252°
2026-05-06 22:01 39.80674 2.23188 21977 ft 369 kts 252°
2026-05-06 22:02 39.79916 2.19989 22520 ft 372 kts 252°
2026-05-06 22:02 39.79150 2.16766 23043 ft 374 kts 252°
2026-05-06 22:02 39.78380 2.13528 23541 ft 376 kts 252°
2026-05-06 22:02 39.77614 2.10278 24043 ft 376 kts 252°
2026-05-06 22:03 39.76852 2.07029 24525 ft 376 kts 252°
2026-05-06 22:03 39.76087 2.03777 24988 ft 377 kts 252°
2026-05-06 22:03 39.75317 2.00517 25431 ft 377 kts 252°
2026-05-06 22:03 39.74545 1.97259 25864 ft 378 kts 252°
2026-05-06 22:04 39.73769 1.93992 26300 ft 379 kts 252°
2026-05-06 22:04 39.72990 1.90720 26726 ft 380 kts 252°
2026-05-06 22:04 39.72209 1.87437 27102 ft 382 kts 252°
2026-05-06 22:04 39.71437 1.84183 27491 ft 383 kts 251°
2026-05-06 22:05 39.70648 1.80873 27904 ft 384 kts 251°
2026-05-06 22:05 39.69845 1.77518 28323 ft 385 kts 251°
2026-05-06 22:05 39.69048 1.74200 28729 ft 385 kts 251°
2026-05-06 22:05 39.68247 1.70875 29131 ft 386 kts 251°
2026-05-06 22:06 39.67457 1.67584 29522 ft 387 kts 251°
2026-05-06 22:06 39.66655 1.64248 29895 ft 388 kts 251°
2026-05-06 22:06 39.65847 1.60903 30295 ft 387 kts 251°
2026-05-06 22:06 39.65045 1.57582 30758 ft 385 kts 251°
2026-05-06 22:07 39.64248 1.54278 31214 ft 382 kts 251°
2026-05-06 22:07 39.63453 1.50997 31706 ft 380 kts 251°
2026-05-06 22:07 39.62663 1.47745 32205 ft 377 kts 251°
2026-05-06 22:07 39.61883 1.44530 32688 ft 374 kts 251°
2026-05-06 22:08 39.61001 1.41375 33153 ft 371 kts 245°
2026-05-06 22:08 39.59941 1.38342 33643 ft 368 kts 244°
2026-05-06 22:08 39.58854 1.35294 34088 ft 366 kts 244°
2026-05-06 22:08 39.57797 1.32363 34430 ft 366 kts 244°
2026-05-06 22:09 39.56717 1.29373 34676 ft 367 kts 244°
2026-05-06 22:09 39.55634 1.26365 34877 ft 370 kts 245°
2026-05-06 22:09 39.53430 1.20298 34975 ft 376 kts 244°
2026-05-06 22:10 39.51184 1.14185 34988 ft 377 kts 244°
2026-05-06 22:10 39.48947 1.08033 34975 ft 377 kts 244°
2026-05-06 22:11 39.46712 1.01841 34975 ft 377 kts 244°
2026-05-06 22:11 39.44485 0.95683 34977 ft 378 kts 244°
2026-05-06 22:12 39.42255 0.89533 34980 ft 378 kts 244°
2026-05-06 22:12 39.40022 0.83381 34982 ft 378 kts 244°
2026-05-06 22:13 39.37783 0.77239 34983 ft 378 kts 244°
2026-05-06 22:13 39.35538 0.71091 34990 ft 379 kts 244°
2026-05-06 22:14 39.33298 0.64978 34964 ft 379 kts 244°
2026-05-06 22:14 39.31036 0.58823 34972 ft 380 kts 244°
2026-05-06 22:15 39.28772 0.52660 34978 ft 380 kts 244°
2026-05-06 22:15 39.26506 0.46501 34982 ft 380 kts 244°
2026-05-06 22:16 39.24231 0.40345 34986 ft 380 kts 244°
2026-05-06 22:16 39.21959 0.34201 34997 ft 381 kts 244°
2026-05-06 22:17 39.19675 0.28036 34992 ft 381 kts 244°
2026-05-06 22:17 39.17385 0.21861 34989 ft 382 kts 244°
2026-05-06 22:18 39.15090 0.15703 34988 ft 382 kts 244°
2026-05-06 22:18 39.12788 0.09546 34985 ft 381 kts 244°
2026-05-06 22:19 39.10492 0.03396 34975 ft 381 kts 243°
2026-05-06 22:19 39.08193 -0.02742 34994 ft 381 kts 244°
2026-05-06 22:20 39.05894 -0.08869 34980 ft 382 kts 244°
2026-05-06 22:20 39.03583 -0.15031 34968 ft 383 kts 244°
2026-05-06 22:21 39.01263 -0.21191 34959 ft 383 kts 243°
2026-05-06 22:21 38.98936 -0.27348 34949 ft 383 kts 243°
2026-05-06 22:22 38.96608 -0.33503 34939 ft 383 kts 243°
2026-05-06 22:22 38.94272 -0.39654 34933 ft 383 kts 243°
2026-05-06 22:23 38.91928 -0.45798 34933 ft 383 kts 243°
2026-05-06 22:23 38.89590 -0.51952 34938 ft 383 kts 243°
2026-05-06 22:24 38.87251 -0.58093 34942 ft 382 kts 243°
2026-05-06 22:24 38.84913 -0.64211 34959 ft 382 kts 243°
2026-05-06 22:25 38.82589 -0.70276 34975 ft 381 kts 243°
2026-05-06 22:25 38.80256 -0.76368 34991 ft 380 kts 243°
2026-05-06 22:26 38.77910 -0.82458 34993 ft 381 kts 243°
2026-05-06 22:26 38.75553 -0.88557 34989 ft 382 kts 243°
2026-05-06 22:27 38.73200 -0.94666 34985 ft 383 kts 243°
2026-05-06 22:27 38.70840 -1.00775 34985 ft 383 kts 243°
2026-05-06 22:28 38.68473 -1.06882 34981 ft 383 kts 243°
2026-05-06 22:28 38.66105 -1.12988 34982 ft 383 kts 243°
2026-05-06 22:29 38.63731 -1.19095 34967 ft 383 kts 243°
2026-05-06 22:29 38.61346 -1.25197 34971 ft 384 kts 243°
2026-05-06 22:30 38.58954 -1.31304 34974 ft 384 kts 243°
2026-05-06 22:30 38.56566 -1.37411 34979 ft 384 kts 243°
2026-05-06 22:31 38.54175 -1.43518 34982 ft 384 kts 243°
2026-05-06 22:31 38.51774 -1.49620 34984 ft 384 kts 243°
2026-05-06 22:32 38.49364 -1.55718 34979 ft 386 kts 243°
2026-05-06 22:32 38.46944 -1.61849 34965 ft 388 kts 243°
2026-05-06 22:33 38.44511 -1.68007 34965 ft 389 kts 243°
2026-05-06 22:33 38.42065 -1.74182 34964 ft 390 kts 243°
2026-05-06 22:34 38.39609 -1.80363 34969 ft 391 kts 243°
2026-05-06 22:34 38.37150 -1.86548 34973 ft 391 kts 243°
2026-05-06 22:35 38.34707 -1.92686 34980 ft 392 kts 243°
2026-05-06 22:35 38.32231 -1.98889 34967 ft 393 kts 243°
2026-05-06 22:36 38.29740 -2.05105 34965 ft 395 kts 243°
2026-05-06 22:36 38.27241 -2.11329 34968 ft 395 kts 243°
2026-05-06 22:37 38.24736 -2.17565 34966 ft 396 kts 243°
2026-05-06 22:37 38.22226 -2.23794 34969 ft 396 kts 243°
2026-05-06 22:38 38.19711 -2.30032 34968 ft 396 kts 243°
2026-05-06 22:38 38.17189 -2.36282 34952 ft 398 kts 243°
2026-05-06 22:39 38.14655 -2.42546 34936 ft 399 kts 243°
2026-05-06 22:39 38.12112 -2.48810 34936 ft 399 kts 243°
2026-05-06 22:40 38.09993 -2.54012 34945 ft 399 kts 243°
2026-05-06 22:40 38.07441 -2.60274 34941 ft 399 kts 243°
2026-05-06 22:41 38.03611 -2.69658 34951 ft 400 kts 243°
2026-05-06 22:42 38.01040 -2.75923 34930 ft 401 kts 243°
2026-05-06 22:42 37.98453 -2.82210 34930 ft 402 kts 243°
2026-05-06 22:43 37.95813 -2.88466 34934 ft 403 kts 238°
2026-05-06 22:43 37.92172 -2.93872 34929 ft 405 kts 228°
2026-05-06 22:44 37.88267 -2.99017 34932 ft 405 kts 228°
2026-05-06 22:44 37.84371 -3.04158 34954 ft 404 kts 228°
2026-05-06 22:45 37.80471 -3.09286 34931 ft 405 kts 228°
2026-05-06 22:45 37.76591 -3.14446 34928 ft 405 kts 232°
2026-05-06 22:46 37.73848 -3.20586 34925 ft 403 kts 251°
2026-05-06 22:46 37.72961 -3.27529 34924 ft 405 kts 264°
2026-05-06 22:47 37.72579 -3.34634 34921 ft 406 kts 264°
2026-05-06 22:47 37.72185 -3.41707 34921 ft 407 kts 264°
2026-05-06 22:48 37.71787 -3.48784 34926 ft 407 kts 264°
2026-05-06 22:48 37.71379 -3.55921 34925 ft 408 kts 264°
2026-05-06 22:49 37.70970 -3.63061 34928 ft 408 kts 264°
2026-05-06 22:49 37.70773 -3.66577 34391 ft 407 kts 264°
2026-05-06 22:49 37.70566 -3.70229 32628 ft 417 kts 264°
2026-05-06 22:49 37.70355 -3.73876 31602 ft 414 kts 264°
2026-05-06 22:50 37.70151 -3.77402 31465 ft 401 kts 264°
2026-05-06 22:50 37.69954 -3.80816 31319 ft 389 kts 264°
2026-05-06 22:50 37.69755 -3.84237 30863 ft 386 kts 263°
2026-05-06 22:50 37.69555 -3.87585 30384 ft 383 kts 263°
2026-05-06 22:51 37.69352 -3.90917 29887 ft 382 kts 263°
2026-05-06 22:51 37.69147 -3.94292 29372 ft 379 kts 263°
2026-05-06 22:51 37.68949 -3.97569 28905 ft 376 kts 263°
2026-05-06 22:51 37.68753 -4.00807 28445 ft 373 kts 263°
2026-05-06 22:52 37.68555 -4.04060 27983 ft 370 kts 263°
2026-05-06 22:52 37.68360 -4.07286 27533 ft 368 kts 263°
2026-05-06 22:52 37.68166 -4.10499 27075 ft 366 kts 263°
2026-05-06 22:52 37.67970 -4.13698 26630 ft 364 kts 263°
2026-05-06 22:53 37.67774 -4.16858 26193 ft 363 kts 263°
2026-05-06 22:53 37.67576 -4.20031 25767 ft 362 kts 263°
2026-05-06 22:53 37.67376 -4.23196 25340 ft 361 kts 263°
2026-05-06 22:53 37.67179 -4.26305 24932 ft 360 kts 263°
2026-05-06 22:54 37.66980 -4.29443 24515 ft 358 kts 263°
2026-05-06 22:54 37.66782 -4.32572 24106 ft 357 kts 263°
2026-05-06 22:54 37.66584 -4.35684 23704 ft 355 kts 263°
2026-05-06 22:54 37.66388 -4.38781 23269 ft 353 kts 263°
2026-05-06 22:55 37.66195 -4.41843 22844 ft 350 kts 263°
2026-05-06 22:55 37.66000 -4.44885 22444 ft 346 kts 263°
2026-05-06 22:55 37.65805 -4.47886 22040 ft 341 kts 263°
2026-05-06 22:55 37.65613 -4.50858 21638 ft 338 kts 263°
2026-05-06 22:56 37.65422 -4.53796 21214 ft 335 kts 263°
2026-05-06 22:56 37.65231 -4.56710 20809 ft 332 kts 263°
2026-05-06 22:56 37.65040 -4.59603 20393 ft 330 kts 263°
2026-05-06 22:56 37.64851 -4.62485 19967 ft 329 kts 263°
2026-05-06 22:57 37.64666 -4.65352 19546 ft 327 kts 263°
2026-05-06 22:57 37.64479 -4.68206 19124 ft 326 kts 263°
2026-05-06 22:57 37.64292 -4.71054 18683 ft 326 kts 263°
2026-05-06 22:57 37.64103 -4.73900 18253 ft 325 kts 263°
2026-05-06 22:58 37.63913 -4.76743 17777 ft 325 kts 263°
2026-05-06 22:58 37.63723 -4.79571 17341 ft 323 kts 263°
2026-05-06 22:58 37.63531 -4.82385 16909 ft 321 kts 263°
2026-05-06 22:58 37.63341 -4.85184 16480 ft 319 kts 263°
2026-05-06 22:59 37.63152 -4.87967 16050 ft 318 kts 263°
2026-05-06 22:59 37.62965 -4.90705 15628 ft 317 kts 263°
2026-05-06 22:59 37.62774 -4.93475 15196 ft 316 kts 263°
2026-05-06 22:59 37.62585 -4.96234 14778 ft 316 kts 263°
2026-05-06 23:00 37.62396 -4.98992 14345 ft 315 kts 263°
2026-05-06 23:00 37.62206 -5.01750 13917 ft 315 kts 263°
2026-05-06 23:00 37.62016 -5.04506 13458 ft 315 kts 263°
2026-05-06 23:00 37.61823 -5.07255 13016 ft 314 kts 263°
2026-05-06 23:01 37.61631 -5.09991 12593 ft 313 kts 263°
2026-05-06 23:01 37.61441 -5.12731 12161 ft 313 kts 263°
2026-05-06 23:01 37.61250 -5.15451 11716 ft 312 kts 263°
2026-05-06 23:01 37.61057 -5.18181 11311 ft 312 kts 263°
2026-05-06 23:02 37.60864 -5.20891 10890 ft 312 kts 263°
2026-05-06 23:02 37.60599 -5.23596 10469 ft 310 kts 255°
2026-05-06 23:02 37.59903 -5.26150 10167 ft 303 kts 242°
2026-05-06 23:02 37.58839 -5.28376 10046 ft 292 kts 234°
2026-05-06 23:03 37.57719 -5.30476 9844 ft 285 kts 234°
2026-05-06 23:03 37.56621 -5.32548 9735 ft 286 kts 234°
2026-05-06 23:03 37.55502 -5.34661 9219 ft 291 kts 234°
2026-05-06 23:03 37.54390 -5.36762 8908 ft 287 kts 234°
2026-05-06 23:04 37.53282 -5.38846 8539 ft 286 kts 234°
2026-05-06 23:04 37.52173 -5.40923 8174 ft 285 kts 234°
2026-05-06 23:04 37.51082 -5.42969 7761 ft 281 kts 234°
2026-05-06 23:04 37.49994 -5.45011 7123 ft 280 kts 234°
2026-05-06 23:05 37.48911 -5.47042 6512 ft 278 kts 234°
2026-05-06 23:05 37.47844 -5.49039 5905 ft 276 kts 234°
2026-05-06 23:05 37.46787 -5.51013 5309 ft 273 kts 234°
2026-05-06 23:05 37.45731 -5.52987 4735 ft 270 kts 235°
2026-05-06 23:06 37.44687 -5.54936 4148 ft 267 kts 235°
2026-05-06 23:06 37.43680 -5.56813 3916 ft 250 kts 236°
2026-05-06 23:06 37.42747 -5.58555 3794 ft 235 kts 236°
2026-05-06 23:06 37.42047 -5.60350 3684 ft 224 kts 253°
2026-05-06 23:07 37.41850 -5.62246 3591 ft 214 kts 267°
2026-05-06 23:07 37.41838 -5.64070 3509 ft 211 kts 268°
2026-05-06 23:07 37.41841 -5.65903 3410 ft 209 kts 268°
2026-05-06 23:07 37.41840 -5.67729 3170 ft 208 kts 268°
2026-05-06 23:08 37.41839 -5.69513 2906 ft 205 kts 268°
2026-05-06 23:08 37.41837 -5.71281 2638 ft 193 kts 268°
2026-05-06 23:08 37.41835 -5.72870 2422 ft 180 kts 267°
2026-05-06 23:08 37.41832 -5.74379 2164 ft 166 kts 267°
2026-05-06 23:09 37.41830 -5.75762 1956 ft 151 kts 268°
2026-05-06 23:09 37.41827 -5.77028 1763 ft 140 kts 268°
2026-05-06 23:09 37.41824 -5.78224 1603 ft 134 kts 267°
2026-05-06 23:09 37.41821 -5.79398 1409 ft 133 kts 267°
2026-05-06 23:10 37.41818 -5.80547 1230 ft 133 kts 267°
2026-05-06 23:10 37.41815 -5.81708 1046 ft 133 kts 267°
2026-05-06 23:10 37.41812 -5.82879 855 ft 134 kts 267°
2026-05-06 23:10 37.41811 -5.84060 683 ft 136 kts 268°
2026-05-06 23:11 37.41805 -5.85259 526 ft 138 kts 268°
2026-05-06 23:11 37.41802 -5.86466 316 ft 137 kts 268°
2026-05-06 23:11 37.41798 -5.87654 132 ft 137 kts 266°
2026-05-06 23:11 37.41786 -5.88724 106 ft 108 kts 269°
2026-05-06 23:12 37.41767 -5.89769 352 ft 128 kts 268°
2026-05-06 23:12 37.41800 -5.90952 973 ft 147 kts 269°
2026-05-06 23:12 37.41805 -5.92269 1736 ft 149 kts 267°
2026-05-06 23:12 37.41892 -5.93594 2189 ft 163 kts 275°
2026-05-06 23:13 37.42063 -5.95159 2088 ft 195 kts 275°
2026-05-06 23:13 37.42245 -5.96872 2058 ft 205 kts 275°
2026-05-06 23:13 37.42511 -5.98667 2031 ft 206 kts 291°
2026-05-06 23:13 37.43428 -6.00026 2033 ft 210 kts 325°
2026-05-06 23:14 37.44765 -6.00804 2032 ft 215 kts 341°
2026-05-06 23:14 37.46258 -6.00802 2032 ft 221 kts 17°
2026-05-06 23:14 37.47521 -5.99722 2037 ft 225 kts 51°
2026-05-06 23:14 37.48132 -5.97938 2038 ft 224 kts 84°
2026-05-06 23:15 37.48222 -5.95979 2032 ft 224 kts 98°
2026-05-06 23:15 37.47989 -5.94051 2034 ft 223 kts 96°
2026-05-06 23:15 37.47979 -5.92106 2059 ft 223 kts 90°
2026-05-06 23:15 37.48047 -5.90150 2316 ft 224 kts 89°
2026-05-06 23:16 37.48125 -5.88189 2560 ft 225 kts 89°
2026-05-06 23:16 37.48174 -5.86223 2786 ft 224 kts 91°
2026-05-06 23:16 37.48208 -5.84275 2580 ft 222 kts 91°
2026-05-06 23:16 37.48235 -5.82327 2263 ft 223 kts 91°
2026-05-06 23:17 37.48264 -5.80409 2064 ft 221 kts 90°
2026-05-06 23:17 37.48288 -5.78507 2032 ft 223 kts 91°
2026-05-06 23:17 37.48313 -5.76519 2033 ft 223 kts 91°
2026-05-06 23:17 37.48334 -5.74567 2030 ft 223 kts 91°
2026-05-06 23:18 37.48188 -5.72652 2028 ft 220 kts 111°
2026-05-06 23:18 37.47426 -5.71056 2029 ft 214 kts 140°
2026-05-06 23:18 37.46197 -5.70074 2035 ft 209 kts 162°
2026-05-06 23:18 37.44823 -5.69720 2033 ft 203 kts 185°
2026-05-06 23:19 37.43489 -5.70127 2032 ft 197 kts 210°
2026-05-06 23:19 37.42447 -5.71213 2034 ft 195 kts 235°
2026-05-06 23:19 37.41886 -5.72765 2033 ft 198 kts 259°
2026-05-06 23:19 37.41825 -5.74506 2018 ft 201 kts 268°
2026-05-06 23:20 37.41826 -5.76258 1851 ft 198 kts 268°
2026-05-06 23:20 37.41824 -5.77927 1647 ft 183 kts 268°
2026-05-06 23:20 37.41822 -5.79467 1383 ft 169 kts 268°
2026-05-06 23:20 37.41819 -5.80842 1180 ft 147 kts 268°
2026-05-06 23:21 37.41816 -5.82079 986 ft 138 kts 268°
2026-05-06 23:21 37.41812 -5.83272 804 ft 135 kts 267°
2026-05-06 23:21 37.41813 -5.84461 625 ft 137 kts 268°
2026-05-06 23:21 37.41808 -5.85661 439 ft 137 kts 267°
2026-05-06 23:22 37.41800 -5.86860 250 ft 136 kts 268°
2026-05-06 23:22 37.41796 -5.88045 121 ft 128 kts 268°
2026-05-06 23:22 37.41792 -5.89034 101 ft 97 kts 269°
2026-05-06 23:22 37.41788 -5.89791 95 ft 78 kts 269°
2026-05-06 23:23 37.41789 -5.90274 92 ft 11 kts 270°
2026-05-06 23:23 37.41833 -5.90295 92 ft 8 kts 355°
2026-05-06 23:23 37.41901 -5.90302 94 ft 11 kts 355°
2026-05-06 23:23 37.41991 -5.90306 93 ft 14 kts
2026-05-06 23:24 37.42079 -5.90296 92 ft 12 kts 27°
2026-05-06 23:24 37.42112 -5.90248 92 ft 0 kts 77°